GEFSSGP_con_prob3kmehi_276.txt.gz
EHI
7 9 13 18 17 8 1 0 0 0 0 0 0 0 0 0 0 0 1 2 2 2 1 2 3 3 3 1 1 2 3 3 2 1 0 0 0 0 1 2 2 2 1 0 0 0 0 0 0
7 11 16 18 13 5 1 0 0 0 0 0 0 0 0 0 0 1 2 2 1 1 1 2 3 3 3 3 1 1 1 1 1 0 0 0 0 0 0 1 2 2 2 0 0 0 0 0 0
10 16 21 17 8 1 0 0 0 0 0 0 0 0 0 0 0 1 2 2 1 1 2 4 5 4 4 4 3 1 1 0 0 0 0 0 0 0 0 1 2 2 1 1 1 0 0 0 0
17 21 21 13 4 0 0 0 0 0 0 0 0 0 0 0 0 1 2 2 1 1 3 6 7 6 4 3 3 3 2 1 0 0 0 0 0 0 0 1 2 2 1 2 2 1 0 0 0
23 22 16 7 2 0 0 0 0 0 0 0 0 0 0 0 0 0 1 1 0 1 3 5 7 7 5 3 3 3 2 1 0 0 0 0 0 0 0 0 1 1 1 2 2 1 0 0 0
24 20 10 3 0 0 0 0 0 0 0 0 0 0 0 0 0 0 0 0 0 1 3 5 7 7 6 5 4 3 2 1 1 0 0 0 0 0 0 0 0 0 0 1 1 0 0 0 0
20 15 6 1 0 0 0 0 0 0 0 0 0 0 0 0 0 0 0 0 0 1 2 4 7 8 8 7 5 4 3 2 1 0 0 0 0 0 0 1 1 1 1 0 0 0 1 1 0
11 8 3 1 0 0 0 0 0 0 0 0 0 0 0 0 0 0 0 0 0 1 1 2 5 7 8 8 7 5 5 4 3 1 0 0 0 1 1 2 3 3 2 1 1 2 3 2 1
4 3 1 0 0 0 0 0 0 0 0 0 1 1 1 0 0 0 0 1 1 1 1 1 2 3 5 7 8 7 7 6 4 1 1 2 2 2 2 3 4 4 3 3 4 4 4 3 2
2 2 1 0 0 0 0 0 0 0 0 1 2 2 1 0 0 0 0 1 1 1 1 1 1 1 1 3 7 8 10 10 6 2 2 3 4 3 2 3 4 4 4 4 5 7 6 3 1
1 1 0 0 0 0 0 0 0 0 0 1 3 3 1 0 0 0 0 0 1 1 2 3 4 3 2 2 4 7 10 11 8 4 3 4 4 4 4 5 5 3 3 3 3 5 5 2 1
0 0 0 0 0 0 0 0 0 0 1 3 4 3 1 0 0 0 0 0 1 2 4 6 8 8 8 8 6 5 7 9 8 7 6 5 6 7 7 8 7 4 3 3 3 4 4 3 2
0 0 0 0 0 0 0 0 0 0 1 3 4 2 0 0 0 0 0 0 2 5 8 10 13 15 18 18 14 8 6 7 8 9 10 10 9 10 10 11 10 6 4 5 5 5 5 4 3
0 0 0 0 0 0 0 0 0 0 1 3 3 1 0 0 0 0 1 2 4 8 12 15 18 22 24 23 19 12 7 8 10 12 14 13 13 14 14 13 11 7 5 6 6 5 5 5 3
0 0 0 0 0 0 0 0 0 0 1 2 2 1 1 1 1 0 2 4 7 11 15 17 18 22 23 21 17 12 10 11 13 15 16 14 14 17 17 14 11 7 5 6 6 5 4 3 2
0 0 0 0 0 0 0 0 0 0 0 1 2 3 3 3 2 1 3 5 10 15 18 15 14 21 24 20 16 12 12 15 16 19 19 15 14 16 17 15 10 8 7 6 6 5 4 3 3
0 0 0 0 0 0 0 0 0 0 0 1 2 3 4 5 5 5 5 7 13 19 21 16 15 22 25 21 16 14 14 17 18 21 21 16 13 14 14 12 9 7 7 5 6 7 6 5 6
0 0 0 0 0 0 0 0 0 0 1 2 2 3 5 9 10 9 7 9 15 22 24 22 21 25 27 24 20 17 17 18 19 21 22 18 13 12 11 10 8 7 6 6 7 9 8 6 8
0 0 0 0 0 0 0 0 0 0 1 3 5 6 9 14 15 13 10 11 19 27 29 27 26 27 28 28 25 23 21 20 19 21 21 18 13 11 9 9 9 9 8 6 7 8 7 7 8
0 0 0 0 0 0 0 0 0 0 1 3 7 9 13 17 19 18 15 16 24 33 34 32 30 30 29 27 25 24 22 20 20 23 23 18 13 11 9 10 11 11 10 7 6 6 5 6 7
0 0 0 0 0 0 0 0 1 2 2 3 6 10 13 17 19 20 19 19 26 35 38 36 36 35 29 25 23 22 22 21 22 26 25 19 15 12 11 12 12 11 11 9 8 6 4 4 4
0 0 0 0 0 0 0 0 2 3 3 2 5 8 11 14 17 20 21 21 24 32 37 40 42 40 33 27 25 23 22 21 22 25 24 20 16 13 11 11 12 12 13 12 10 9 8 6 5
0 0 0 0 0 0 0 0 2 5 4 3 4 8 11 13 17 22 27 27 24 26 33 41 47 46 39 30 26 25 21 18 19 22 23 20 17 14 11 10 12 14 15 14 12 11 11 11 10
0 0 0 0 0 0 0 1 2 4 5 4 4 8 11 13 17 25 33 35 29 26 32 42 49 50 44 33 27 24 19 17 18 21 23 19 17 15 12 10 11 14 15 15 15 14 13 14 14
0 0 0 0 0 0 0 1 2 3 3 3 5 8 10 12 18 27 36 40 36 32 36 44 51 51 44 35 29 25 20 18 20 23 22 18 15 15 16 15 15 16 16 15 16 18 18 17 15
0 0 0 0 0 0 1 1 2 1 1 3 5 8 10 12 17 27 35 39 38 39 42 49 55 53 45 39 34 31 25 20 21 23 21 17 13 14 19 22 22 20 17 15 17 20 20 18 16
0 0 0 0 0 0 1 2 1 1 1 2 5 8 10 13 16 22 29 32 35 41 47 52 57 56 48 42 38 34 29 24 20 21 21 18 14 13 19 24 24 22 18 15 15 16 15 14 14
0 0 0 0 0 0 1 1 1 1 1 2 4 8 12 14 15 18 21 25 31 40 48 54 59 61 53 46 40 34 32 29 23 21 21 21 18 16 18 20 20 20 18 16 15 13 10 9 9
0 0 0 0 0 0 0 0 1 1 2 2 4 9 14 17 17 17 19 24 31 38 46 53 60 62 57 49 43 40 38 34 28 25 24 24 22 20 19 18 16 17 17 16 16 14 9 7 7
0 0 0 0 0 0 0 1 2 2 2 2 3 9 16 18 18 18 20 27 33 38 44 51 59 62 58 52 48 46 43 38 33 30 27 26 24 23 21 19 16 15 16 15 15 14 10 7 7

GEFSSGP_con_prob3kmehi_282.txt.gz
EHI
10 6 2 1 1 1 0 0 0 0 0 0 0 0 0 0 0 0 1 1 1 0 1 5 9 8 5 3 1 2 3 3 2 1 1 2 1 2 4 4 3 2 1 0 0 0 0 1 3
7 5 2 1 0 0 0 0 0 0 0 0 0 0 0 0 0 0 1 1 0 0 0 4 10 10 6 3 2 3 4 3 2 2 2 2 1 1 3 3 2 1 0 0 0 1 1 1 1
5 4 3 2 1 0 0 0 0 0 0 0 0 0 0 0 0 0 0 0 0 0 0 4 10 10 6 3 2 3 3 2 2 3 2 1 0 0 1 1 0 0 0 0 1 2 1 0 0
3 4 4 4 3 1 0 0 0 0 0 0 0 0 0 0 0 0 0 0 0 0 0 3 10 11 7 4 3 2 1 1 2 3 2 1 0 0 0 0 0 0 0 0 1 2 1 0 0
2 2 3 3 3 1 0 0 0 0 0 0 0 0 0 0 0 0 0 0 0 0 0 3 10 13 10 6 4 3 2 2 2 2 1 0 0 0 0 0 0 0 0 0 1 2 1 0 0
2 2 3 2 1 0 0 0 0 0 0 0 0 0 0 0 0 0 0 0 0 0 0 3 9 12 11 9 7 5 4 3 3 2 1 0 0 0 0 0 0 0 0 0 1 1 0 0 0
3 3 3 2 1 0 0 0 0 0 0 0 0 0 0 0 0 0 0 0 0 0 0 2 5 8 10 10 9 7 5 4 4 2 0 0 0 0 1 1 1 0 0 0 0 0 0 0 0
5 4 4 2 0 0 0 0 0 0 0 0 0 0 0 0 1 1 1 0 0 0 0 1 3 5 7 9 9 7 6 5 4 2 1 1 0 0 1 2 2 1 1 1 1 0 0 0 0
5 4 4 2 1 0 0 0 0 0 1 1 1 1 1 1 1 2 1 1 1 1 1 2 3 3 4 5 6 6 6 6 4 3 2 1 0 0 1 2 2 2 2 2 1 0 0 0 0
5 4 3 2 1 0 0 0 0 1 2 2 2 2 1 1 1 1 1 1 2 2 2 3 2 1 1 2 3 4 5 5 4 2 1 1 0 0 0 1 1 2 2 1 1 0 0 0 0
5 4 3 1 0 0 0 0 0 1 2 2 1 1 1 1 0 0 1 2 3 3 3 3 2 1 0 0 1 3 4 3 2 1 0 0 0 0 0 0 0 1 1 0 0 0 0 0 0
3 3 2 1 0 0 0 0 0 0 1 1 1 1 1 1 0 0 1 3 4 5 6 5 4 3 1 1 1 2 3 2 1 0 0 0 0 0 0 0 0 0 0 0 0 0 0 0 0
1 1 1 0 0 0 0 0 0 0 1 1 2 2 1 0 0 1 2 4 6 8 8 6 5 4 3 3 2 2 1 1 1 0 0 0 0 0 0 0 0 0 0 0 0 0 0 0 0
0 0 0 0 0 0 1 1 1 1 2 3 4 3 1 0 1 3 5 7 9 9 7 5 5 5 5 5 4 2 0 0 1 0 0 0 0 0 0 0 0 0 0 0 0 0 0 0 0
0 0 0 0 0 1 2 2 2 2 3 4 5 5 3 2 4 5 6 7 9 8 6 5 6 6 7 7 5 3 1 1 1 1 0 0 0 0 0 0 0 0 0 0 0 0 0 0 0
0 0 0 0 0 1 1 2 3 4 5 6 6 6 6 6 7 8 6 6 6 6 5 6 7 8 8 7 6 4 2 2 2 2 1 0 0 0 0 0 0 0 0 0 0 0 0 0 0
0 0 0 0 0 0 1 2 4 6 7 7 6 7 8 9 9 8 6 4 4 4 4 6 8 9 7 5 5 3 1 1 2 2 1 0 0 0 0 0 0 0 0 0 0 0 0 0 0
0 0 0 0 0 1 2 3 4 6 7 7 6 7 9 10 8 7 6 4 3 3 3 6 9 9 6 4 4 3 1 0 1 1 0 0 0 0 0 0 0 0 0 0 0 0 0 0 0
0 0 0 0 0 1 1 2 3 4 6 7 7 8 8 8 6 7 7 7 7 6 6 8 10 10 7 5 4 4 2 1 1 1 0 1 1 2 1 0 0 0 0 0 0 0 0 0 0
0 0 0 0 0 0 0 0 1 2 5 8 9 8 7 5 6 7 9 11 12 11 10 11 12 12 10 7 5 5 4 2 2 2 1 1 2 2 1 0 0 0 0 0 0 0 0 0 0
0 0 0 0 0 0 0 0 0 1 4 8 9 7 5 5 7 9 11 13 15 14 14 15 16 15 13 10 7 6 5 4 4 3 1 1 1 1 1 0 0 0 0 0 0 0 0 0 0
0 0 0 0 0 0 0 0 0 2 4 6 6 6 6 7 9 10 10 13 16 17 19 20 20 20 17 13 10 8 6 6 5 3 1 1 1 1 1 1 1 2 1 1 1 0 0 0 0
0 0 0 0 0 0 0 0 0 1 3 4 5 5 7 10 12 11 10 12 16 20 25 25 25 24 22 17 13 10 8 7 6 3 3 4 3 3 3 3 3 3 3 2 2 1 1 1 1
0 0 0 0 0 0 0 0 0 1 2 4 5 6 8 10 11 10 9 11 15 22 29 32 30 27 25 21 14 11 10 8 7 5 4 5 4 3 3 4 4 3 3 3 3 3 2 2 2
0 0 0 0 0 0 0 0 0 1 2 4 5 7 9 9 8 7 8 10 16 25 34 37 34 29 27 22 16 11 10 9 8 6 5 4 2 1 2 3 4 3 3 4 3 3 3 2 2
0 0 0 0 0 0 0 0 1 1 3 5 6 8 9 9 8 6 8 12 18 27 35 39 35 30 27 23 17 13 12 11 9 6 5 3 1 0 1 2 2 2 3 4 4 3 2 1 1
0 0 0 0 0 0 0 0 2 3 4 7 8 8 9 9 9 9 10 14 20 26 32 36 36 31 27 23 19 16 15 13 10 7 4 3 2 2 2 1 1 1 2 3 3 3 2 1 0
0 0 0 0 0 0 0 0 2 3 6 8 10 9 9 10 10 10 10 13 19 24 29 35 38 36 30 25 22 19 16 14 11 7 4 3 3 3 3 2 1 1 1 3 3 3 3 2 1
0 0 0 0 0 0 0 0 1 2 4 8 10 9 8 9 10 9 8 11 17 22 27 36 42 41 36 29 24 20 17 13 10 7 5 5 5 4 4 3 3 3 3 3 3 3 3 1 0
0 0 0 0 0 0 0 0 0 1 3 6 9 8 8 9 9 8 7 9 15 20 27 36 43 43 40 32 25 21 17 12 9 6 5 5 6 6 5 5 5 5 5 4 3 3 2 1 0

GEFSSGP_con_prob3kmehi_288.txt.gz
EHI
4 2 1 0 0 0 0 0 0 0 0 0 0 0 0 0 0 0 0 0 0 0 1 5 8 6 4 3 3 4 4 3 2 1 1 1 0 0 1 1 1 0 0 0 0 1 2 1 0
1 1 0 0 0 0 0 0 0 0 0 0 0 0 0 0 0 0 0 0 0 0 1 4 7 6 4 3 3 4 4 3 1 0 0 0 0 0 0 0 0 0 0 0 0 1 2 1 1
0 0 0 0 0 0 0 0 0 0 0 0 0 0 0 0 0 0 0 0 0 0 0 3 6 7 5 4 4 4 3 1 0 0 0 0 0 0 0 0 0 0 0 0 0 0 1 1 0
0 0 0 0 0 0 0 0 0 0 0 0 0 0 0 0 0 0 0 0 0 0 0 3 8 9 7 6 5 3 2 1 0 0 0 0 0 0 0 0 0 0 0 0 0 0 0 0 0
0 0 0 0 0 0 0 0 0 0 0 0 0 0 0 0 0 0 0 0 0 0 0 3 8 11 10 9 6 3 1 1 0 0 0 0 0 1 1 1 1 0 0 0 0 0 0 0 0
1 0 0 0 0 0 0 0 0 0 0 0 0 0 0 0 0 0 0 0 0 0 0 2 6 9 10 9 5 3 3 3 2 1 0 0 1 2 2 2 2 1 0 0 0 0 0 1 1
2 1 0 0 0 0 0 0 0 0 0 0 0 0 0 0 0 0 0 0 0 0 0 1 3 5 6 5 4 5 6 6 4 2 1 0 1 2 2 2 2 2 1 0 0 0 0 0 0
3 2 0 0 0 0 0 0 0 0 0 0 0 0 0 0 0 0 0 0 0 0 0 0 1 3 4 3 3 4 6 6 5 3 1 0 0 1 1 1 1 2 1 0 0 0 0 0 0
3 2 0 0 0 0 0 0 0 0 0 0 0 0 0 0 0 0 0 0 0 0 0 0 1 3 3 3 3 3 3 4 4 3 2 0 0 0 0 0 0 1 1 0 0 0 0 0 0
3 1 0 0 0 0 0 0 0 0 0 0 0 0 0 0 0 0 0 0 0 0 0 0 1 2 2 2 1 1 1 2 2 2 1 0 0 0 0 0 0 0 0 0 0 0 0 0 0
2 1 1 1 1 0 0 0 0 0 0 0 0 0 0 0 0 0 0 0 0 0 0 0 1 1 1 1 0 0 0 0 1 1 0 0 0 0 0 0 0 0 0 0 0 0 0 0 0
3 3 3 2 1 0 0 0 0 0 0 0 0 0 0 0 0 0 1 1 1 1 0 0 0 0 0 0 0 0 0 0 0 0 0 0 0 0 0 0 0 0 0 0 0 0 0 0 0
2 2 2 2 1 0 0 0 0 0 0 1 0 0 0 1 1 1 2 2 2 2 1 0 0 0 0 0 0 0 0 0 0 0 0 0 0 0 0 0 0 0 0 0 0 0 0 0 0
1 1 1 1 0 0 0 0 0 0 1 1 0 0 1 1 2 2 3 3 3 2 1 0 0 0 0 0 1 1 1 0 0 0 0 0 0 0 0 0 0 0 0 0 0 0 0 0 0
0 0 0 0 0 0 0 0 0 1 1 1 0 1 2 2 2 2 2 3 3 2 1 0 0 0 0 0 1 2 1 0 0 0 0 0 0 0 0 0 0 0 0 0 0 0 0 0 0
0 0 0 0 0 0 0 0 0 2 2 1 1 2 3 2 2 1 1 2 3 2 1 0 0 0 0 0 1 2 2 1 0 0 0 0 0 0 0 0 0 0 0 0 0 0 0 0 0
0 0 0 0 0 0 0 0 1 1 2 2 2 4 4 3 1 0 1 2 3 2 1 0 0 0 0 0 1 2 2 1 0 0 0 0 0 0 0 0 0 0 0 0 0 0 0 0 0
0 0 0 0 0 0 0 1 1 1 1 2 4 5 5 3 1 1 1 2 2 1 0 0 0 0 0 0 1 2 2 1 0 0 0 0 0 0 0 0 0 0 0 0 0 0 0 0 0
0 0 0 0 0 0 0 1 1 0 1 2 4 5 6 4 2 2 2 2 1 0 0 0 0 0 0 0 0 1 1 0 0 0 0 0 0 0 0 0 0 0 0 0 0 0 0 0 0
0 0 0 0 0 0 0 0 0 0 1 2 3 4 5 4 2 2 2 1 0 0 0 0 0 0 0 0 0 0 0 0 0 0 0 0 0 0 0 0 0 0 0 0 0 0 0 0 0
0 0 0 0 0 0 0 0 0 0 0 1 1 1 2 2 2 2 1 0 0 0 0 0 1 1 1 1 2 2 2 2 1 0 0 0 0 0 0 0 0 0 0 0 0 0 0 0 0
0 0 0 0 0 0 0 0 0 0 0 0 0 1 1 1 1 1 1 2 2 1 1 1 2 2 3 4 6 6 5 4 2 0 0 0 0 0 0 0 0 0 0 0 0 0 0 0 0
0 0 0 0 0 0 0 0 0 0 0 0 0 1 1 0 0 1 2 3 3 3 3 3 3 3 4 7 9 9 7 6 4 1 1 1 0 0 0 0 0 0 0 0 0 0 0 0 0
0 0 0 0 0 0 0 0 0 0 0 0 0 1 1 1 1 1 3 4 4 5 5 5 4 3 5 9 12 12 10 8 6 4 3 2 1 0 0 0 0 0 0 0 0 0 0 0 0
0 0 0 0 0 0 0 0 0 0 0 0 0 0 1 2 2 3 4 4 4 4 5 6 5 4 6 11 15 15 12 9 7 5 4 3 1 0 0 0 0 0 0 0 0 0 0 0 0
0 0 0 0 0 0 0 0 0 0 0 0 0 0 1 2 3 4 5 5 4 3 4 5 6 6 8 13 16 15 13 9 7 5 4 3 1 0 0 0 0 0 0 0 0 0 0 0 0
0 0 0 0 0 0 0 0 0 0 0 0 0 0 0 1 3 3 4 5 4 3 3 4 5 7 10 13 15 15 13 11 8 6 4 3 1 1 1 0 0 0 0 0 0 0 0 0 0
0 0 0 0 0 0 0 0 0 0 0 0 0 0 1 1 3 3 3 4 3 3 2 2 4 7 9 12 14 14 13 12 9 6 5 3 3 3 3 2 1 0 0 0 0 0 0 0 0
0 0 0 0 0 0 0 0 0 0 0 0 0 1 2 3 3 3 3 3 3 2 1 1 3 6 9 11 13 13 12 11 8 6 4 3 3 4 5 5 4 2 1 0 0 0 0 0 0
0 0 0 0 0 0 0 0 0 0 0 0 0 1 2 3 3 3 3 3 3 1 1 2 4 7 9 11 13 13 11 10 7 5 4 3 4 5 6 6 5 3 2 1 0 0 0 0 0

GEFSSGP_con_prob3kmehi_294.txt.gz
EHI
3 3 5 7 5 2 1 0 0 0 0 0 0 0 0 0 0 0 0 0 0 1 3 8 10 8 6 6 5 5 6 4 2 0 0 1 2 3 3 2 1 0 0 0 0 0 0 0 0
2 3 6 7 4 1 0 0 0 0 0 0 0 0 0 0 0 0 0 0 0 0 2 6 9 8 6 6 5 5 5 4 2 0 0 0 1 2 2 1 0 0 0 0 0 0 0 0 0
2 5 7 6 3 1 0 0 0 0 0 0 0 0 0 0 0 0 0 0 0 0 1 5 8 7 6 6 5 5 5 3 1 0 0 0 0 1 1 0 0 0 0 0 0 0 0 0 0
5 8 8 4 1 0 0 0 0 0 0 0 0 0 0 0 0 0 0 0 0 0 1 4 7 7 5 5 6 6 5 3 1 1 1 1 1 0 0 0 0 1 0 0 0 0 1 1 1
7 8 5 2 0 0 0 0 0 0 0 0 0 0 0 0 0 0 0 0 0 0 0 3 7 7 6 6 6 6 6 5 4 3 3 2 2 1 0 0 0 0 0 0 1 0 1 2 2
6 4 2 0 0 0 0 0 0 0 0 0 0 0 0 0 0 0 0 0 0 0 0 2 6 8 7 7 7 7 8 8 6 6 5 4 3 2 1 0 0 0 0 0 0 0 0 1 1
2 1 0 0 0 0 0 0 0 0 0 0 0 0 0 0 0 0 0 0 0 0 0 1 3 5 6 7 7 8 9 9 8 8 8 6 4 3 1 0 1 1 0 0 0 0 0 0 0
0 0 0 0 0 0 0 0 0 0 0 0 0 0 0 0 0 0 0 0 0 0 0 0 1 3 4 5 6 8 10 10 9 8 7 6 4 3 1 1 2 2 1 0 0 0 0 0 0
0 0 0 0 0 0 0 0 0 0 0 0 0 0 0 0 0 0 0 0 0 0 0 0 1 3 3 4 5 7 9 10 8 6 5 4 2 1 0 1 3 4 3 1 1 1 0 0 0
0 0 0 0 0 0 0 0 0 0 0 0 0 0 0 0 0 0 0 0 0 0 0 0 1 2 3 4 5 7 8 8 8 6 4 2 1 0 0 2 4 4 3 3 2 1 0 0 0
0 0 0 0 0 0 0 0 0 0 0 0 0 0 0 0 0 0 0 0 0 0 0 0 0 1 2 3 5 7 8 9 9 7 4 2 1 0 1 2 2 3 3 3 2 1 0 0 0
0 0 0 0 0 0 0 0 0 0 0 0 0 0 0 0 0 0 0 0 0 0 0 0 0 1 1 2 4 6 7 8 9 8 5 2 1 1 1 1 0 1 2 3 2 1 0 0 0
0 0 0 0 0 0 0 0 0 0 0 0 0 0 1 1 0 0 0 1 1 1 0 0 0 1 2 2 2 4 5 5 7 8 6 3 1 1 0 0 0 1 2 3 3 2 0 0 0
0 0 0 0 0 0 0 0 0 0 0 0 0 1 3 3 1 1 1 1 2 1 0 0 0 1 1 2 2 3 3 3 5 7 6 4 3 1 0 0 0 1 1 2 2 1 0 0 0
0 0 0 0 0 0 0 0 0 0 0 0 1 3 5 4 3 2 1 1 1 1 0 0 0 0 0 1 1 2 3 3 5 6 6 5 4 2 1 0 0 0 1 1 1 0 0 0 0
0 0 0 0 0 0 0 1 1 1 0 1 2 4 5 4 3 2 1 0 0 0 0 0 0 0 0 1 1 1 2 3 4 5 4 3 3 2 2 1 0 0 0 1 0 0 0 0 0
0 0 0 0 0 0 0 1 2 1 0 1 2 3 4 4 4 3 1 0 0 0 0 0 1 1 1 1 2 1 2 3 4 4 3 2 2 3 2 1 0 0 0 0 0 0 0 0 0
0 0 0 0 0 0 0 1 2 1 0 1 3 3 4 5 5 3 1 0 0 0 1 1 2 2 1 1 2 2 3 3 3 3 4 3 3 4 3 2 1 1 0 0 0 0 0 0 0
0 0 0 0 0 0 0 1 1 1 1 2 3 4 5 5 4 2 1 0 0 1 2 3 3 3 2 1 2 2 2 3 3 4 5 5 4 4 4 4 3 1 0 0 1 1 1 0 0
0 0 0 0 0 0 0 0 1 1 2 2 3 5 6 5 3 2 1 0 1 3 4 4 3 3 3 3 3 2 2 2 3 4 6 7 5 4 3 4 3 1 0 1 1 0 0 0 0
0 0 0 0 0 0 0 0 1 2 2 2 3 4 4 3 2 2 2 2 3 4 5 5 4 4 4 4 4 3 3 4 5 6 7 7 6 5 4 4 2 1 0 1 0 0 0 0 0
0 0 0 0 0 0 0 0 1 2 2 3 3 5 4 3 2 3 4 4 5 5 5 6 6 6 6 7 7 6 6 6 7 7 8 8 7 7 6 5 3 1 0 0 0 0 0 0 0
0 0 0 0 0 0 0 0 0 1 2 4 6 7 7 5 4 5 5 4 4 4 4 6 9 11 11 10 9 8 7 7 8 8 8 8 7 8 7 5 4 2 1 0 0 0 0 0 0
0 0 0 0 0 0 0 0 0 0 2 4 7 8 9 8 6 7 6 5 3 3 3 7 13 16 15 13 11 10 9 10 10 9 8 7 7 8 8 5 4 4 2 2 2 2 1 1 1
0 0 0 0 0 0 0 0 0 0 1 3 7 9 9 7 6 8 8 6 4 4 5 9 14 18 18 15 13 13 13 13 13 11 9 7 7 8 8 6 5 5 5 5 6 6 4 3 3
0 0 0 0 0 0 0 0 0 1 1 3 6 8 6 4 4 8 10 8 7 7 8 11 15 18 19 17 16 16 16 14 14 14 11 9 8 9 8 7 6 6 6 7 9 9 8 6 6
0 0 0 0 0 0 0 0 0 1 1 3 6 6 4 2 2 5 8 8 8 8 9 11 15 18 18 17 17 18 18 16 16 17 16 13 12 12 10 8 7 7 7 9 10 12 11 10 8
0 0 0 0 0 0 0 0 0 1 2 5 6 5 3 1 1 3 6 7 7 7 8 11 14 17 18 17 17 18 19 19 19 20 19 17 17 16 13 11 9 8 9 11 11 12 12 11 10
0 0 0 0 0 0 0 0 0 1 4 6 7 5 4 2 1 3 6 8 8 7 8 11 14 17 19 19 20 20 20 21 21 20 20 20 19 17 15 13 11 11 11 12 12 12 12 11 10
0 0 0 0 0 0 0 0 0 1 4 7 8 6 5 3 2 4 8 10 10 9 8 10 15 19 21 22 23 24 23 24 23 21 20 20 19 16 14 13 13 11 11 12 12 11 12 11 9